Regional Weather Roundup
Issued by NWS

Home | Current Version | Previous Version | Graphics & Text | Print | Product List | Glossary On
Versions: 1 2 3 4 5 6 7 8 9 10 11 12 13 14 15 16 17 18 19 20 21 22 23 24 25 26 27 28 29 30 31 32 33 34 35 36 37 38 39 40 41 42 43 44 45 46 47 48 49 50
000
ASUS43 KIND 272109
RWRIN

WEATHER ROUNDUP FOR INDIANA
NATIONAL WEATHER SERVICE INDIANAPOLIS IN
400 PM EST TUE JAN 27 2015

NOTE: "FAIR" INDICATES FEW OR NO CLOUDS BELOW 12,000 FEET WITH NO
SIGNIFICANT WEATHER AND/OR OBSTRUCTIONS TO VISIBILITY.

* - STATION DOES NOT REPORT WEATHER SUCH AS PRECIPITATION OR FOG.

+ - STATION NOT QUALITY CONTROLLED BY THE NATIONAL WEATHER SERVICE.
    USE DATA WITH CAUTION...ESPECIALLY DEWPOINT AND RELATIVE
    HUMIDITY OBSERVATIONS.

INZ001>003-010>013-019-020-272200-
NORTHWEST INDIANA

CITY           SKY/WX    TMP DP  RH WIND       PRES   REMARKS
GARY /AIRPORT/ MOSUNNY   32  16  51 NE10      30.20R WCI  24
KNOX *+        SUNNY     31  -7  19 NW6       30.17R WCI  25
LA PORTE +     SUNNY     31   9  40 N9        30.18R WCI  23
MICHIGAN CITY+ SUNNY     28  10  47 N7        30.20R WCI  21
MONTICELLO +   SUNNY     29  15  55 NW5       30.17R WCI  24
RENSSELAER +   SUNNY     32  16  51 N6        30.18R WCI  26
VALPARAISO     SUNNY     29   5  36 N9        30.18R WCI  20

$$

LMZ046-743>745-272200-
SOUTHERN LAKE MICHIGAN

STATION/POSITION TIME  TEMP WIND        PRES
                       AIR  DIR/SP/G
                 (UTC) (F)  (DEG/KT/KT) (MB)
MICHIGAN CITY    2100   28  350/ 11/ 13   N/A

$$

INZ004-005-014>016-021>024-272200-
NORTH CENTRAL INDIANA

CITY           SKY/WX    TMP DP  RH WIND       PRES   REMARKS
ELKHART        SUNNY     28   7  40 N7        30.18R WCI  21
GOSHEN         SUNNY     27  11  51 N8        30.16R WCI  19
LOGANSPORT +   SUNNY     28  12  50 N6        30.17R WCI  22
PERU/GRISSOM   SUNNY     26  13  57 W6        30.15R WCI  19
ROCHESTER +    SUNNY     32  14  47 NE6       30.17R WCI  26
SOUTH BEND     SUNNY     29   9  43 N9        30.18R WCI  20
WARSAW +         N/A     28  14  54 MISG        N/A

$$

INZ006>009-017-018-025>027-272200-
NORTHEAST INDIANA

CITY           SKY/WX    TMP DP  RH WIND       PRES   REMARKS
ANGOLA *+      SUNNY     25  12  58 N6        30.14R WCI  18
AUBURN +       SUNNY     28  12  50 NW10      30.16R WCI  19
FORT WAYNE     SUNNY     26  12  55 N9        30.16R WCI  17
HUNTINGTON +   SUNNY     25   8  47 N6        30.16R WCI  18

$$

INZ028-029-035-036-043>045-051>053-272200-
WEST CENTRAL INDIANA

CITY           SKY/WX    TMP DP  RH WIND       PRES   REMARKS
CRAWFORDSVL +  CLOUDY    27  12  53 N5        30.16R WCI  22
GREENCASTLE +  CLOUDY    30  18  59 N6        30.15R WCI  24
LAFAYETTE      SUNNY     29  13  51 N7        30.18R WCI  22
TERRE HAUTE    CLOUDY    31  26  82 N7        30.17R WCI  24

$$

INZ030>032-037>040-046>048-054>057-064-065-272200-
CENTRAL INDIANA

CITY           SKY/WX    TMP DP  RH WIND       PRES   REMARKS
ANDERSON       SUNNY     27  12  54 N9        30.14R WCI  17
CP ATTERBURY + CLOUDY    30  18  59 N6        30.15R WCI  24
COLUMBUS       CLOUDY    28  10  47 N7        30.15R WCI  21
GREENWOOD *+   PTSUNNY   30   7  37 N5        30.14R WCI  25
INDIANAPOLIS   MOSUNNY   29   9  43 N5        30.14R WCI  24
-EAGLE CREEK   SUNNY     31  11  43 NW6       30.13R WCI  25
KOKOMO *+      SUNNY     27  12  54 NW5       30.16R WCI  21
MARION +       SUNNY     26  12  57 NW6       30.16R WCI  19
MT COMFORT *+  SUNNY     30   1  29 N8        30.14R WCI  23
SHELBYVILLE    CLOUDY    31  13  47 N8        30.13R WCI  23
ZIONSVILLE +   SUNNY     30  11  46 N7        30.14R WCI  23

$$

INZ033-034-041-042-049-050-058-059-272200-
EAST CENTRAL INDIANA

CITY           SKY/WX    TMP DP  RH WIND       PRES   REMARKS
MUNCIE         SUNNY     25  14  63 N6        30.14R WCI  18

$$

INZ060-061-067>069-081>083-085>088-272200-
SOUTHWEST INDIANA

CITY           SKY/WX    TMP DP  RH WIND       PRES   REMARKS
EVANSVILLE     CLOUDY    36  29  75 N6        30.17R HAZE
HUNTINGBURG *+ CLOUDY    32  28  86 CALM      30.15R
WASHINGTON +   CLOUDY    32  28  85 N6        30.16R WCI  26

$$

INZ062-063-066-070>080-084-089>092-272200-
SOUTH CENTRAL AND SOUTHEAST INDIANA

CITY           SKY/WX    TMP DP  RH WIND       PRES   REMARKS
BLOOMINGTON    CLOUDY    30  25  81 N7        30.14R WCI  23
SEYMOUR +      CLOUDY    32  16  51 N7        30.14  WCI  26

$$




USA.gov is the U.S. government's official web portal to all federal, state and local government web resources and services.